Location: Kusterdingen
(48.5244°N, 9.1181°E)
Time: 21:13:31
(UTC+00:00)

Daily predictions for brighter satellites

Satellite Brightness Start Highest point End
(mag) Time Altitude Azimuth Time Altitude Azimuth Time Altitude Azimuth
Cosmos 1726 Rocket 3.7 15:59:00 10° S 16:03:27 85° WNW 16:07:54 10° N
CZ-2D R/B 3.2 16:00:48 10° SSE 16:04:25 57° ENE 16:08:01 10° N
Cosmos 1812 4.1 16:07:02 10° SE 16:09:36 18° E 16:12:11 10° NE
YAOGAN 11 4.5 16:10:19 10° NNE 16:14:45 49° E 16:19:09 10° S
USA 276 2.6 16:12:45 10° SW 16:14:58 33° SSE 16:17:13 10° E
CZ-2C R/B 2.6 16:12:27 10° SSE 16:15:57 60° ENE 16:19:32 10° N
Cosmos 2263 Rocket 2.3 16:11:15 10° SSW 16:16:43 62° ESE 16:22:14 10° NNE
Cosmos 1437 Rocket 2.9 16:13:20 10° NNW 16:17:04 74° W 16:20:49 10° S
Cosmos 1844 Rocket 4.3 16:14:46 10° SE 16:17:33 14° E 16:20:21 10° ENE
Nadezhda 4 Rocket 4.4 16:15:01 10° SSE 16:20:39 40° E 16:26:18 10° NNE
CORIOLIS 4.2 16:15:37 10° SSE 16:20:50 57° ENE 16:26:07 10° N
ERS-2 2.3 16:19:32 10° S 16:22:24 56° WSW 16:25:18 10° NNW
USA 307 2.7 16:20:25 10° WNW 16:24:17 81° SSW 16:28:05 10° SE
Cosmos 2227 Rocket 3.1 16:19:31 10° SW 16:24:57 47° NW 16:30:25 10° NNE
Cosmos 44 4.2 16:21:53 10° NW 16:27:12 60° WSW 16:32:15 10° SSE
Meteor 1-20 Rocket 4.5 16:21:55 10° N 16:27:15 45° ENE 16:32:39 10° SE
Cosmos 1140 Rocket 3.6 16:22:45 10° NNW 16:27:49 51° ENE 16:32:50 10° SE
SAR-Lupe-2 3.8 16:26:05 10° S 16:29:39 75° WSW 16:33:15 10° NNW
YAOGAN 1 4.4 16:29:59 12° NE 16:29:59 12° NE 16:31:21 10° NNE
Cosmos 1666 2.4 16:30:45 10° N 16:34:18 80° E 16:37:50 10° SSE
NOSS 8 (A) 4.5 16:33:11 10° SW 16:36:54 71° NW 16:39:22 14° NE
Cosmos 1603 3.8 16:32:15 10° NNW 16:37:50 52° NE 16:43:19 10° SE
DMSP B5D2-2 4.0 16:33:35 10° NNE 16:38:49 76° ESE 16:44:02 10° S
Cosmos 1076 Rocket 4.1 16:37:13 10° NNW 16:41:33 62° W 16:45:50 10° S
Meteor 1-31 Rocket 2.5 16:39:11 10° SSE 16:42:51 72° ENE 16:46:35 10° N
USA 306 3.8 16:45:24 10° W 16:47:12 22° SW 16:48:56 10° SSE
SL-16 R/B 4.1 16:45:32 10° NW 16:50:33 33° WSW 16:55:32 10° SSW
ATLAS CENTAUR R/B 2.8 16:46:57 10° NW 16:51:05 80° SW 16:59:12 10° SE
Cosmos 1602 3.8 16:49:27 10° NNW 16:53:11 76° W 16:56:54 10° S
SL-8 R/B 4.5 16:50:52 10° W 16:55:29 50° SSW 17:00:07 10° SE
RESURS DK-1 3.6 16:52:34 10° N 16:55:49 22° NE 16:56:12 22° NE
USA 305 3.1 16:52:14 10° WNW 16:56:01 61° SW 16:59:47 10° SE
CZ-4B R/B 3.4 16:53:47 10° SSE 16:58:46 62° ENE 17:03:38 10° N
Cosmos 1782 3.3 16:57:46 10° SSE 17:01:20 35° E 17:03:03 24° NE
Cosmos 1812 Rocket 3.5 16:57:26 10° S 17:01:41 60° E 17:06:00 10° NNE
Cosmos 1943 3.3 16:56:10 10° NNW 17:01:49 81° WSW 17:07:28 10° SSE
Helios 1A 3.1 16:58:42 13° NNE 17:02:13 49° E 17:06:14 10° S
ATLAS 2AS CENTAUR R/B 2.9 16:57:20 10° NW 17:04:05 48° NE 17:09:08 17° ESE
SMAP 3.7 17:00:57 10° S 17:05:32 59° W 17:10:09 10° NNW
NOAA 6 4.0 17:01:36 10° SSE 17:06:37 57° ENE 17:11:38 10° N
CZ-4B R/B 4.4 17:05:25 10° S 17:08:56 54° W 17:12:32 10° NNW
Radarsat Rocket 3.9 17:07:23 10° SSE 17:13:09 67° ENE 17:19:15 10° NNW
Cosmos 407 Rocket 3.4 17:08:01 10° NNW 17:13:13 87° ENE 17:18:20 10° SSE
Cosmos 2297 Rocket 4.4 17:10:06 10° WNW 17:13:47 17° NW 17:17:29 10° N
ISS -0.8 17:17:17 10° W 17:19:33 17° SW 17:21:48 10° S
Cosmos 2251 Rocket 3.7 17:15:37 10° NNW 17:20:58 78° WSW 17:26:20 10° SSE
Cosmos 220 Rocket 3.9 17:20:31 10° NNW 17:24:48 59° ENE 17:27:53 18° SE
Cosmos 2056 Rocket 4.0 17:22:32 10° S 17:27:31 40° ESE 17:28:45 35° ENE
Cosmos 1954 Rocket 4.1 17:22:38 10° NNW 17:27:48 52° ENE 17:31:28 19° SE
COSMOS 2455 4.2 17:23:41 10° SSE 17:27:03 21° ESE 17:27:03 21° ESE
Timation 2 Rocket 4.1 17:22:43 10° S 17:28:23 47° ESE 17:30:41 32° ENE
Cosmos 1844 4.1 17:23:12 10° S 17:28:37 44° ESE 17:30:24 34° ENE
CZ-4 R/B 4.3 17:26:13 10° SSE 17:30:18 82° ENE 17:34:25 10° NNW
Lacrosse 5 2.2 17:25:38 10° SSW 17:30:28 48° SE 17:31:43 39° E
Cosmos-2242 3.7 17:27:04 10° SSW 17:31:19 54° WNW 17:35:35 10° N
COSMO-SKYMED 1 2.5 17:29:30 28° NNE 17:31:42 67° ESE 17:36:00 10° S
Lacrosse 4 Rocket 2.9 17:29:26 10° NW 17:33:30 39° WSW 17:37:26 10° S
Cosmos 1833 Rocket 4.0 17:30:15 10° N 17:33:49 22° NNE 17:33:49 22° NNE
Cosmos 1553 Rocket 4.0 17:33:07 10° N 17:39:20 54° ENE 17:45:24 10° SSE
APEX 3.4 17:37:14 10° SW 17:39:57 43° WNW 17:39:57 43° WNW
USA 234 3.2 17:37:35 33° ENE 17:40:50 76° SE 17:47:23 10° SW
Meteor 2-2 Rocket 4.4 17:35:15 10° SSW 17:41:01 78° WNW 17:46:57 10° N
Cosmos 2221 2.8 17:37:39 10° S 17:41:02 46° SE 17:41:02 46° SE
Cosmos 2344 3.4 17:35:13 10° SW 17:42:47 85° SE 17:47:05 28° NE
Cosmos 1812 4.2 17:41:06 10° SW 17:44:29 35° WNW 17:47:41 11° N
Cosmos 1190 Rocket 4.0 17:39:57 10° NNW 17:45:19 87° WSW 17:50:36 10° SSE
Cosmos 1818 3.5 17:41:11 10° SW 17:46:37 85° NW 17:48:45 39° NE
Cosmos 2026 Rocket 4.0 17:41:47 10° S 17:48:03 89° W 17:54:27 10° N
USA 276 4.2 17:47:03 10° W 17:48:03 21° W 17:48:03 21° W
Cosmos 1371 Rocket 3.9 17:46:32 10° S 17:51:42 64° ESE 17:52:32 55° ENE
NOAA 15 4.5 17:49:08 10° SSE 17:54:23 68° ENE 17:59:40 10° N
Cosmos 1844 Rocket 2.5 17:54:58 10° SSW 18:00:32 85° ESE 18:02:02 51° NNE
Cosmos 2263 Rocket 3.9 17:56:19 10° WSW 18:01:04 28° NW 18:05:03 13° N
Meteor 1-26 Rocket 4.1 17:55:47 10° S 18:01:20 82° E 18:04:18 30° NNE
Cosmos 1766 Rocket 3.6 17:59:39 10° NNW 18:04:02 77° W 18:08:20 10° S
YAOGAN 1 3.8 18:07:02 31° NNW 18:07:02 31° NNW 18:09:19 10° NNW
Cosmos 1092 Rocket 4.3 17:59:32 10° SSW 18:05:37 66° WNW 18:11:46 10° N
Cosmos 1933 4.2 18:03:05 10° SSW 18:06:57 48° WNW 18:07:55 39° NNW
Cosmos 1420 Rocket 3.9 18:02:24 10° SSW 18:07:39 89° ESE 18:08:27 66° NNE
ADEOS 4.0 18:05:05 10° S 18:10:15 63° WSW 18:15:27 10° NNW
Cosmos 2082 Rocket 4.3 18:08:17 10° N 18:09:22 13° N 18:09:22 13° N
Cosmos 1624 Rocket 3.9 18:10:15 10° SSW 18:15:29 87° WNW 18:15:39 84° N
Cosmos 1417 Rocket 4.3 18:17:28 10° N 18:23:49 76° E 18:24:06 75° ESE
SL-08 R/B 3.8 18:25:44 52° NW 18:26:08 54° WNW 18:30:39 10° SSW
RESURS DK-1 4.2 18:29:55 10° NW 18:31:56 27° NW 18:31:56 27° NW
BREEZE-M DEB 4.5 18:28:41 10° WSW 18:48:51 76° SSE 18:49:09 75° SE
ATLAS 2AS CENTAUR R/B 3.3 18:48:30 10° NW 18:55:05 50° WSW 18:56:38 42° SSW
COSMOS 2455 4.3 19:07:20 10° SW 19:10:14 30° SW 19:10:14 30° SW
Lacrosse 5 3.8 19:08:32 10° WSW 19:10:56 27° W 19:10:56 27° W
USA 234 4.0 19:24:56 47° NW 19:24:56 47° NW 19:30:01 10° W
